| time (UTC) | temp F | wind direction | speed MPH | gust MPH | rain 1hr in | rain 24hr in | rain mn in | humidity % | barometer mb |
| 20260508203550 | 71 | 246 | 3.0 | 17.0 | 0.00 | 0.00 | 0.00 | 38 | 1011.9 |
| 20260508203056 | 71 | 284 | 9.0 | 17.0 | 0.00 | 0.00 | 0.00 | 35 | 1011.9 |
| 20260508202553 | 71 | 275 | 9.0 | 15.0 | 0.00 | 0.00 | 0.00 | 35 | 1011.9 |
| 20260508202055 | 71 | 259 | 6.0 | 12.0 | 0.00 | 0.00 | 0.00 | 37 | 1011.8 |
| 20260508201552 | 71 | 290 | 4.0 | 13.0 | 0.00 | 0.00 | 0.00 | 38 | 1011.9 |
| 20260508201052 | 71 | 321 | 3.0 | 13.0 | 0.00 | 0.00 | 0.00 | 37 | 1012.0 |
| 20260508200552 | 71 | 308 | 5.0 | 13.0 | 0.00 | 0.00 | 0.00 | 40 | 1011.9 |
| 20260508200057 | 71 | 253 | 4.0 | 13.0 | 0.00 | 0.00 | 0.00 | 38 | 1012.0 |
| 20260508195551 | 71 | 294 | 7.0 | 17.0 | 0.00 | 0.00 | 0.00 | 38 | 1012.1 |
| 20260508195052 | 71 | 286 | 7.0 | 17.0 | 0.00 | 0.00 | 0.00 | 37 | 1011.9 |
| 20260508194552 | 71 | 279 | 7.0 | 12.0 | 0.00 | 0.00 | 0.00 | 37 | 1012.1 |
| 20260508194056 | 71 | 289 | 6.0 | 12.0 | 0.00 | 0.00 | 0.00 | 35 | 1012.0 |
| 20260508193552 | 70 | 83 | 2.0 | 16.0 | 0.00 | 0.00 | 0.00 | 39 | 1012.1 |
| 20260508193109 | 70 | 355 | 5.0 | 16.0 | 0.00 | 0.00 | 0.00 | 37 | 1012.2 |
| 20260508192552 | 70 | 294 | 10.0 | 16.0 | 0.00 | 0.00 | 0.00 | 34 | 1012.2 |
| 20260508192052 | 70 | 278 | 5.0 | 10.0 | 0.00 | 0.00 | 0.00 | 36 | 1012.3 |
| 20260508191556 | 70 | 9 | 4.0 | 14.0 | 0.00 | 0.00 | 0.00 | 40 | 1012.5 |
| 20260508191052 | 70 | 297 | 8.0 | 14.0 | 0.00 | 0.00 | 0.00 | 39 | 1012.6 |
| 20260508190552 | 70 | 268 | 8.0 | 13.0 | 0.00 | 0.00 | 0.00 | 36 | 1012.8 |
| 20260508185553 | 70 | 256 | 5.0 | 11.0 | 0.00 | 0.00 | 0.00 | 40 | 1012.7 |
| 20260508185053 | 70 | 257 | 4.0 | 10.0 | 0.00 | 0.00 | 0.00 | 43 | 1012.7 |
| 20260508184625 | 70 | 302 | 3.0 | 14.0 | 0.00 | 0.00 | 0.00 | 42 | 1012.7 |
| 20260508184050 | 70 | 350 | 4.0 | 14.0 | 0.00 | 0.00 | 0.00 | 42 | 1012.8 |
| 20260508183551 | 69 | 203 | 3.0 | 13.0 | 0.00 | 0.00 | 0.00 | 41 | 1013.1 |
| 20260508183054 | 70 | 288 | 3.0 | 10.0 | 0.00 | 0.00 | 0.00 | 40 | 1013.3 |
| 20260508182609 | 69 | 173 | 5.0 | 12.0 | 0.00 | 0.00 | 0.00 | 43 | 1013.4 |
| 20260508182052 | 69 | 293 | 3.0 | 12.0 | 0.00 | 0.00 | 0.00 | 42 | 1013.4 |
| 20260508181606 | 69 | 250 | 7.0 | 13.0 | 0.00 | 0.00 | 0.00 | 40 | 1013.6 |
| 20260508181052 | 69 | 305 | 7.0 | 13.0 | 0.00 | 0.00 | 0.00 | 43 | 1013.6 |
| 20260508180552 | 69 | 257 | 5.0 | 15.0 | 0.00 | 0.00 | 0.00 | 43 | 1013.7 |
| 20260508180101 | 68 | 297 | 5.0 | 15.0 | 0.00 | 0.00 | 0.00 | 42 | 1013.6 |
| 20260508175553 | 69 | 284 | 8.0 | 15.0 | 0.00 | 0.00 | 0.00 | 42 | 1013.8 |
| 20260508175052 | 68 | 298 | 5.0 | 16.0 | 0.00 | 0.00 | 0.00 | 40 | 1013.8 |
| 20260508174553 | 68 | 294 | 5.0 | 16.0 | 0.00 | 0.00 | 0.00 | 42 | 1014.0 |
| 20260508174053 | 68 | 271 | 7.0 | 16.0 | 0.00 | 0.00 | 0.00 | 42 | 1013.9 |
| 20260508173552 | 68 | 244 | 8.0 | 14.0 | 0.00 | 0.00 | 0.00 | 43 | 1014.0 |
| 20260508173057 | 68 | 257 | 5.0 | 14.0 | 0.00 | 0.00 | 0.00 | 40 | 1014.1 |
| 20260508172552 | 68 | 360 | 5.0 | 11.0 | 0.00 | 0.00 | 0.00 | 42 | 1014.2 |
| 20260508172053 | 68 | 336 | 6.0 | 11.0 | 0.00 | 0.00 | 0.00 | 44 | 1014.4 |
| 20260508171556 | 68 | 245 | 4.0 | 14.0 | 0.00 | 0.00 | 0.00 | 46 | 1014.6 |
| 20260508171057 | 68 | 281 | 4.0 | 14.0 | 0.00 | 0.00 | 0.00 | 47 | 1014.6 |
| 20260508170553 | 67 | 288 | 8.0 | 14.0 | 0.00 | 0.00 | 0.00 | 41 | 1014.9 |
| 20260508170100 | 67 | 282 | 4.0 | 13.0 | 0.00 | 0.00 | 0.00 | 43 | 1015.0 |
| 20260508165553 | 67 | 281 | 5.0 | 15.0 | 0.00 | 0.00 | 0.00 | 42 | 1015.1 |
| 20260508165051 | 67 | 271 | 7.0 | 15.0 | 0.00 | 0.00 | 0.00 | 42 | 1015.2 |
| 20260508164603 | 67 | 256 | 5.0 | 15.0 | 0.00 | 0.00 | 0.00 | 44 | 1015.4 |
| 20260508164053 | 67 | 254 | 6.0 | 16.0 | 0.00 | 0.00 | 0.00 | 45 | 1015.4 |
| 20260508163556 | 67 | 251 | 7.0 | 16.0 | 0.00 | 0.00 | 0.00 | 45 | 1015.4 |
| 20260508163059 | 67 | 194 | 5.0 | 12.0 | 0.00 | 0.00 | 0.00 | 43 | 1015.4 |
| 20260508162552 | 67 | 311 | 6.0 | 13.0 | 0.00 | 0.00 | 0.00 | 46 | 1015.5 |
| 20260508162049 | 67 | 34 | 3.0 | 13.0 | 0.00 | 0.00 | 0.00 | 45 | 1015.6 |
| 20260508161553 | 66 | 293 | 8.0 | 13.0 | 0.00 | 0.00 | 0.00 | 44 | 1015.5 |
| 20260508161053 | 66 | 250 | 6.0 | 12.0 | 0.00 | 0.00 | 0.00 | 46 | 1015.6 |
| 20260508160552 | 66 | 305 | 4.0 | 12.0 | 0.00 | 0.00 | 0.00 | 45 | 1015.7 |
| 20260508160057 | 66 | 284 | 6.0 | 12.0 | 0.00 | 0.00 | 0.00 | 46 | 1015.7 |
| 20260508155550 | 66 | 236 | 3.0 | 12.0 | 0.00 | 0.00 | 0.00 | 46 | 1015.8 |
| 20260508155052 | 65 | 249 | 6.0 | 12.0 | 0.00 | 0.00 | 0.00 | 44 | 1015.9 |
| 20260508154552 | 65 | 300 | 5.0 | 14.0 | 0.00 | 0.00 | 0.00 | 45 | 1015.8 |
| 20260508154052 | 65 | 285 | 6.0 | 14.0 | 0.00 | 0.00 | 0.00 | 47 | 1016.0 |
| 20260508153552 | 65 | 280 | 6.0 | 12.0 | 0.00 | 0.00 | 0.00 | 46 | 1016.0 |
| 20260508153055 | 65 | 269 | 7.0 | 14.0 | 0.00 | 0.00 | 0.00 | 44 | 1016.1 |
| 20260508152552 | 64 | 299 | 8.0 | 14.0 | 0.00 | 0.00 | 0.00 | 45 | 1016.2 |
| 20260508152145 | 64 | 298 | 6.0 | 12.0 | 0.00 | 0.00 | 0.00 | 47 | 1016.2 |
| 20260508151603 | 64 | 205 | 4.0 | 13.0 | 0.00 | 0.00 | 0.00 | 50 | 1016.2 |
| 20260508151052 | 63 | 275 | 7.0 | 13.0 | 0.00 | 0.00 | 0.00 | 46 | 1016.2 |
| 20260508150550 | 63 | 243 | 4.0 | 13.0 | 0.00 | 0.00 | 0.00 | 46 | 1016.4 |
| 20260508145549 | 62 | 250 | 5.0 | 13.0 | 0.00 | 0.00 | 0.00 | 48 | 1016.4 |
| 20260508145049 | 62 | 282 | 5.0 | 11.0 | 0.00 | 0.00 | 0.00 | 50 | 1016.5 |
| 20260508144621 | 62 | 246 | 5.0 | 11.0 | 0.00 | 0.00 | 0.00 | 50 | 1016.4 |
| 20260508144050 | 62 | 251 | 6.0 | 10.0 | 0.00 | 0.00 | 0.00 | 51 | 1016.4 |
| 20260508143550 | 61 | 290 | 5.0 | 13.0 | 0.00 | 0.00 | 0.00 | 50 | 1016.4 |
| 20260508143111 | 61 | 225 | 7.0 | 13.0 | 0.00 | 0.00 | 0.00 | 48 | 1016.3 |
| 20260508142548 | 61 | 279 | 5.0 | 10.0 | 0.00 | 0.00 | 0.00 | 51 | 1016.2 |
| 20260508142048 | 60 | 255 | 4.0 | 10.0 | 0.00 | 0.00 | 0.00 | 52 | 1016.4 |
| 20260508141605 | 60 | 13 | 4.0 | 10.0 | 0.00 | 0.00 | 0.00 | 56 | 1016.4 |
| 20260508141048 | 59 | 282 | 5.0 | 12.0 | 0.00 | 0.00 | 0.00 | 55 | 1016.5 |
| 20260508140548 | 59 | 285 | 5.0 | 12.0 | 0.00 | 0.00 | 0.00 | 57 | 1016.5 |
| 20260508140056 | 58 | 251 | 3.0 | 12.0 | 0.00 | 0.00 | 0.00 | 55 | 1016.6 |
| 20260508135548 | 58 | 292 | 6.0 | 12.0 | 0.00 | 0.00 | 0.00 | 57 | 1016.6 |
| 20260508135052 | 57 | 180 | 6.0 | 11.0 | 0.00 | 0.00 | 0.00 | 57 | 1016.5 |
| 20260508134603 | 57 | 276 | 5.0 | 11.0 | 0.00 | 0.00 | 0.00 | 60 | 1016.6 |
| 20260508134047 | 56 | 256 | 5.0 | 10.0 | 0.00 | 0.00 | 0.00 | 63 | 1016.5 |
| 20260508133551 | 56 | 294 | 5.0 | 10.0 | 0.00 | 0.00 | 0.00 | 64 | 1016.5 |
| 20260508133115 | 55 | 288 | 4.0 | 10.0 | 0.00 | 0.00 | 0.00 | 65 | 1016.5 |
| 20260508132550 | 54 | 303 | 4.0 | 10.0 | 0.00 | 0.00 | 0.00 | 70 | 1016.5 |
| 20260508132048 | 53 | 233 | 3.0 | 10.0 | 0.00 | 0.00 | 0.00 | 73 | 1016.5 |
| 20260508131553 | 52 | 229 | 4.0 | 10.0 | 0.00 | 0.00 | 0.00 | 81 | 1016.4 |
| 20260508131048 | 51 | 273 | 3.0 | 10.0 | 0.00 | 0.00 | 0.00 | 85 | 1016.4 |
| 20260508130548 | 50 | 290 | 6.0 | 10.0 | 0.00 | 0.00 | 0.00 | 89 | 1016.4 |
| 20260508130050 | 48 | 260 | 3.0 | 11.0 | 0.00 | 0.00 | 0.00 | 92 | 1016.4 |
| 20260508125550 | 47 | 275 | 5.0 | 11.0 | 0.00 | 0.00 | 0.00 | 92 | 1016.3 |
| 20260508125049 | 47 | 279 | 1.0 | 9.0 | 0.00 | 0.00 | 0.00 | 94 | 1016.4 |
| 20260508124551 | 47 | 305 | 2.0 | 9.0 | 0.00 | 0.00 | 0.00 | 94 | 1016.4 |
| 20260508124048 | 46 | 0 | 0.0 | 2.0 | 0.00 | 0.00 | 0.00 | 94 | 1016.3 |
| 20260508123547 | 46 | 244 | 0.0 | 2.0 | 0.00 | 0.00 | 0.00 | 94 | 1016.4 |
| 20260508123107 | 45 | 0 | 0.0 | 0.0 | 0.00 | 0.00 | 0.00 | 94 | 1016.4 |
| 20260508122551 | 44 | 0 | 0.0 | 0.0 | 0.00 | 0.00 | 0.00 | 94 | 1016.2 |
| 20260508122048 | 43 | 0 | 0.0 | 0.0 | 0.00 | 0.00 | 0.00 | 94 | 1016.2 |
| 20260508121554 | 42 | 0 | 0.0 | 0.0 | 0.00 | 0.00 | 0.00 | 94 | 1016.2 |
| 20260508121048 | 41 | 0 | 0.0 | 0.0 | 0.00 | 0.00 | 0.00 | 94 | 1016.2 |
| 20260508120548 | 40 | 0 | 0.0 | 0.0 | 0.00 | 0.00 | 0.00 | 94 | 1016.2 |
| 20260508120056 | 40 | 0 | 0.0 | 0.0 | 0.00 | 0.00 | 0.00 | 94 | 1016.2 |
| 20260508115548 | 39 | 0 | 0.0 | 0.0 | 0.00 | 0.00 | 0.00 | 94 | 1016.3 |
| 20260508115051 | 38 | 0 | 0.0 | 0.0 | 0.00 | 0.00 | 0.00 | 94 | 1016.4 |
| 20260508114552 | 38 | 0 | 0.0 | 0.0 | 0.00 | 0.00 | 0.00 | 94 | 1016.3 |
| 20260508114052 | 37 | 0 | 0.0 | 0.0 | 0.00 | 0.00 | 0.00 | 94 | 1016.3 |
| 20260508113554 | 36 | 0 | 0.0 | 0.0 | 0.00 | 0.00 | 0.00 | 94 | 1016.2 |
| 20260508113105 | 36 | 0 | 0.0 | 0.0 | 0.00 | 0.00 | 0.00 | 94 | 1016.2 |
| 20260508112551 | 35 | 0 | 0.0 | 0.0 | 0.00 | 0.00 | 0.00 | 93 | 1016.2 |
| 20260508112052 | 35 | 0 | 0.0 | 0.0 | 0.00 | 0.00 | 0.00 | 93 | 1016.2 |
| 20260508111603 | 35 | 0 | 0.0 | 0.0 | 0.00 | 0.00 | 0.00 | 93 | 1016.1 |
| 20260508111052 | 34 | 0 | 0.0 | 0.0 | 0.00 | 0.00 | 0.00 | 93 | 1016.1 |
| 20260508110552 | 34 | 0 | 0.0 | 0.0 | 0.00 | 0.00 | 0.00 | 93 | 1016.1 |
| 20260508110057 | 34 | 0 | 0.0 | 0.0 | 0.00 | 0.00 | 0.00 | 93 | 1016.0 |
| 20260508105552 | 34 | 0 | 0.0 | 0.0 | 0.00 | 0.00 | 0.00 | 93 | 1015.9 |
| 20260508105052 | 34 | 0 | 0.0 | 0.0 | 0.00 | 0.00 | 0.00 | 93 | 1015.9 |
| 20260508104554 | 34 | 0 | 0.0 | 0.0 | 0.00 | 0.00 | 0.00 | 93 | 1015.9 |
| 20260508104051 | 34 | 0 | 0.0 | 0.0 | 0.00 | 0.00 | 0.00 | 93 | 1015.9 |
| 20260508103552 | 34 | 0 | 0.0 | 0.0 | 0.00 | 0.00 | 0.00 | 93 | 1015.8 |
| 20260508103059 | 34 | 0 | 0.0 | 0.0 | 0.00 | 0.00 | 0.00 | 93 | 1015.9 |
| 20260508102551 | 34 | 0 | 0.0 | 0.0 | 0.00 | 0.00 | 0.00 | 93 | 1015.8 |
| 20260508102052 | 34 | 0 | 0.0 | 0.0 | 0.00 | 0.00 | 0.00 | 93 | 1015.8 |
| 20260508101600 | 34 | 0 | 0.0 | 0.0 | 0.00 | 0.00 | 0.00 | 93 | 1015.7 |
| 20260508101052 | 34 | 0 | 0.0 | 0.0 | 0.00 | 0.00 | 0.00 | 93 | 1015.7 |
| 20260508100552 | 34 | 0 | 0.0 | 0.0 | 0.00 | 0.00 | 0.00 | 93 | 1015.7 |
| 20260508100054 | 34 | 0 | 0.0 | 0.0 | 0.00 | 0.00 | 0.00 | 93 | 1015.7 |
| 20260508095552 | 34 | 0 | 0.0 | 0.0 | 0.00 | 0.00 | 0.00 | 92 | 1015.6 |
| 20260508095050 | 34 | 0 | 0.0 | 0.0 | 0.00 | 0.00 | 0.00 | 92 | 1015.6 |
| 20260508094552 | 34 | 0 | 0.0 | 0.0 | 0.00 | 0.00 | 0.00 | 92 | 1015.5 |
| 20260508094051 | 34 | 0 | 0.0 | 0.0 | 0.00 | 0.00 | 0.00 | 92 | 1015.5 |
| 20260508093555 | 34 | 0 | 0.0 | 0.0 | 0.00 | 0.00 | 0.00 | 92 | 1015.5 |
| 20260508093054 | 34 | 0 | 0.0 | 0.0 | 0.00 | 0.00 | 0.00 | 92 | 1015.5 |
| 20260508092556 | 34 | 0 | 0.0 | 0.0 | 0.00 | 0.00 | 0.00 | 92 | 1015.5 |
| 20260508092052 | 34 | 0 | 0.0 | 0.0 | 0.00 | 0.00 | 0.00 | 92 | 1015.5 |
| 20260508091601 | 34 | 0 | 0.0 | 0.0 | 0.00 | 0.00 | 0.00 | 92 | 1015.5 |
| 20260508091052 | 34 | 0 | 0.0 | 0.0 | 0.00 | 0.00 | 0.00 | 92 | 1015.5 |
| 20260508090552 | 34 | 0 | 0.0 | 0.0 | 0.00 | 0.00 | 0.00 | 92 | 1015.5 |
| 20260508090108 | 34 | 0 | 0.0 | 0.0 | 0.00 | 0.00 | 0.00 | 92 | 1015.4 |
| 20260508085552 | 34 | 0 | 0.0 | 0.0 | 0.00 | 0.00 | 0.00 | 92 | 1015.5 |
| 20260508085051 | 34 | 0 | 0.0 | 0.0 | 0.00 | 0.00 | 0.00 | 92 | 1015.4 |
| 20260508084553 | 34 | 0 | 0.0 | 0.0 | 0.00 | 0.00 | 0.00 | 92 | 1015.4 |
| 20260508084052 | 34 | 0 | 0.0 | 0.0 | 0.00 | 0.00 | 0.00 | 92 | 1015.5 |
| 20260508083716 | 34 | 0 | 0.0 | 0.0 | 0.00 | 0.00 | 0.00 | 92 | 1015.5 |
| 20260508083052 | 34 | 0 | 0.0 | 0.0 | 0.00 | 0.00 | 0.00 | 92 | 1015.5 |
| 20260508082548 | 34 | 0 | 0.0 | 0.0 | 0.00 | 0.00 | 0.00 | 92 | 1015.4 |
| 20260508082052 | 34 | 0 | 0.0 | 0.0 | 0.00 | 0.00 | 0.00 | 92 | 1015.5 |
| 20260508081603 | 34 | 0 | 0.0 | 0.0 | 0.00 | 0.00 | 0.00 | 92 | 1015.5 |
| 20260508081052 | 34 | 0 | 0.0 | 0.0 | 0.00 | 0.00 | 0.00 | 92 | 1015.5 |
| 20260508080553 | 34 | 0 | 0.0 | 0.0 | 0.00 | 0.00 | 0.00 | 92 | 1015.5 |
| 20260508080101 | 34 | 0 | 0.0 | 0.0 | 0.00 | 0.00 | 0.00 | 92 | 1015.5 |
| 20260508075552 | 34 | 0 | 0.0 | 0.0 | 0.00 | 0.00 | 0.00 | 92 | 1015.4 |
| 20260508075051 | 35 | 0 | 0.0 | 0.0 | 0.00 | 0.00 | 0.00 | 92 | 1015.5 |
| 20260508074555 | 35 | 0 | 0.0 | 0.0 | 0.00 | 0.00 | 0.00 | 92 | 1015.5 |
| 20260508074051 | 35 | 0 | 0.0 | 0.0 | 0.00 | 0.00 | 0.00 | 92 | 1015.5 |
| 20260508073552 | 35 | 0 | 0.0 | 0.0 | 0.00 | 0.00 | 0.00 | 92 | 1015.4 |
| 20260508073102 | 35 | 0 | 0.0 | 0.0 | 0.00 | 0.00 | 0.00 | 92 | 1015.4 |
| 20260508072553 | 35 | 0 | 0.0 | 0.0 | 0.00 | 0.00 | 0.00 | 92 | 1015.5 |
| 20260508072049 | 35 | 0 | 0.0 | 0.0 | 0.00 | 0.00 | 0.00 | 91 | 1015.5 |
| 20260508071603 | 35 | 0 | 0.0 | 0.0 | 0.00 | 0.00 | 0.00 | 91 | 1015.5 |
| 20260508071053 | 35 | 0 | 0.0 | 0.0 | 0.00 | 0.00 | 0.00 | 91 | 1015.5 |
| 20260508070552 | 35 | 0 | 0.0 | 0.0 | 0.00 | 0.00 | 0.00 | 91 | 1015.5 |
| 20260508070056 | 35 | 0 | 0.0 | 0.0 | 0.00 | 0.00 | 0.00 | 91 | 1015.6 |
| 20260508065551 | 35 | 0 | 0.0 | 0.0 | 0.00 | 0.00 | 0.00 | 91 | 1015.6 |
| 20260508065049 | 35 | 0 | 0.0 | 0.0 | 0.00 | 0.00 | 0.00 | 91 | 1015.7 |
| 20260508064555 | 35 | 0 | 0.0 | 0.0 | 0.00 | 0.00 | 0.00 | 91 | 1015.7 |
| 20260508064055 | 35 | 0 | 0.0 | 0.0 | 0.00 | 0.00 | 0.00 | 91 | 1015.7 |
| 20260508063551 | 35 | 0 | 0.0 | 0.0 | 0.00 | 0.00 | 0.00 | 91 | 1015.5 |
| 20260508063059 | 35 | 0 | 0.0 | 0.0 | 0.00 | 0.00 | 0.00 | 91 | 1015.6 |
| 20260508062553 | 36 | 0 | 0.0 | 0.0 | 0.00 | 0.00 | 0.00 | 91 | 1015.6 |
| 20260508062052 | 36 | 0 | 0.0 | 0.0 | 0.00 | 0.00 | 0.00 | 91 | 1015.7 |
| 20260508061556 | 36 | 0 | 0.0 | 0.0 | 0.00 | 0.00 | 0.00 | 91 | 1015.7 |
| 20260508061052 | 36 | 0 | 0.0 | 0.0 | 0.00 | 0.00 | 0.00 | 91 | 1015.8 |
| 20260508060552 | 36 | 0 | 0.0 | 0.0 | 0.00 | 0.00 | 0.00 | 91 | 1015.7 |
| 20260508060055 | 36 | 0 | 0.0 | 0.0 | 0.00 | 0.00 | 0.00 | 91 | 1015.8 |
| 20260508055555 | 36 | 0 | 0.0 | 0.0 | 0.00 | 0.00 | 0.00 | 91 | 1015.9 |
| 20260508055052 | 36 | 0 | 0.0 | 0.0 | 0.00 | 0.00 | 0.00 | 91 | 1016.0 |
| 20260508054555 | 36 | 0 | 0.0 | 0.0 | 0.00 | 0.00 | 0.00 | 91 | 1016.0 |
| 20260508054050 | 36 | 0 | 0.0 | 0.0 | 0.00 | 0.00 | 0.00 | 90 | 1015.9 |
| 20260508053553 | 36 | 0 | 0.0 | 0.0 | 0.00 | 0.00 | 0.00 | 90 | 1016.0 |
| 20260508053116 | 37 | 0 | 0.0 | 0.0 | 0.00 | 0.00 | 0.00 | 90 | 1016.0 |
| 20260508052554 | 37 | 0 | 0.0 | 0.0 | 0.00 | 0.00 | 0.00 | 90 | 1016.0 |
| 20260508052052 | 37 | 0 | 0.0 | 0.0 | 0.00 | 0.00 | 0.00 | 90 | 1015.9 |
| 20260508051551 | 37 | 0 | 0.0 | 0.0 | 0.00 | 0.00 | 0.00 | 90 | 1015.9 |
| 20260508051052 | 37 | 0 | 0.0 | 0.0 | 0.00 | 0.00 | 0.00 | 90 | 1015.9 |
| 20260508050551 | 37 | 0 | 0.0 | 0.0 | 0.00 | 0.00 | 0.00 | 90 | 1016.0 |
| 20260508050056 | 37 | 0 | 0.0 | 0.0 | 0.00 | 0.00 | 0.00 | 90 | 1016.0 |
| 20260508045553 | 37 | 0 | 0.0 | 0.0 | 0.00 | 0.00 | 0.00 | 90 | 1016.0 |
| 20260508045053 | 37 | 0 | 0.0 | 0.0 | 0.00 | 0.00 | 0.00 | 90 | 1015.9 |
| 20260508044557 | 37 | 0 | 0.0 | 0.0 | 0.00 | 0.00 | 0.00 | 90 | 1015.9 |
| 20260508044051 | 38 | 0 | 0.0 | 0.0 | 0.00 | 0.00 | 0.00 | 90 | 1015.8 |
| 20260508043553 | 38 | 0 | 0.0 | 0.0 | 0.00 | 0.00 | 0.00 | 89 | 1015.7 |
| 20260508043104 | 38 | 0 | 0.0 | 0.0 | 0.00 | 0.00 | 0.00 | 89 | 1015.7 |
| 20260508042553 | 38 | 0 | 0.0 | 0.0 | 0.00 | 0.00 | 0.00 | 89 | 1015.8 |
| 20260508042050 | 38 | 0 | 0.0 | 0.0 | 0.00 | 0.00 | 0.00 | 89 | 1015.8 |
| 20260508041614 | 38 | 0 | 0.0 | 0.0 | 0.00 | 0.00 | 0.00 | 89 | 1015.8 |
| 20260508041055 | 38 | 0 | 0.0 | 0.0 | 0.00 | 0.00 | 0.00 | 89 | 1015.8 |
| 20260508040552 | 38 | 0 | 0.0 | 0.0 | 0.00 | 0.00 | 0.00 | 89 | 1015.8 |
| 20260508040110 | 39 | 0 | 0.0 | 0.0 | 0.00 | 0.00 | 0.00 | 88 | 1015.8 |
| 20260508035551 | 39 | 0 | 0.0 | 0.0 | 0.00 | 0.00 | 0.00 | 88 | 1015.8 |
| 20260508035052 | 39 | 0 | 0.0 | 0.0 | 0.00 | 0.00 | 0.00 | 88 | 1015.9 |
| 20260508034558 | 39 | 0 | 0.0 | 0.0 | 0.00 | 0.00 | 0.00 | 88 | 1016.0 |
| 20260508034054 | 39 | 0 | 0.0 | 0.0 | 0.00 | 0.00 | 0.00 | 88 | 1016.0 |
| 20260508033553 | 39 | 0 | 0.0 | 1.0 | 0.00 | 0.00 | 0.00 | 87 | 1016.1 |
| 20260508033052 | 40 | 0 | 0.0 | 2.0 | 0.00 | 0.00 | 0.00 | 87 | 1016.1 |
| 20260508032552 | 40 | 0 | 0.0 | 2.0 | 0.00 | 0.00 | 0.00 | 87 | 1016.1 |
| 20260508032050 | 40 | 295 | 1.0 | 2.0 | 0.00 | 0.00 | 0.00 | 87 | 1016.1 |
| 20260508031554 | 40 | 295 | 1.0 | 2.0 | 0.00 | 0.00 | 0.00 | 86 | 1016.1 |
| 20260508031053 | 40 | 0 | 0.0 | 2.0 | 0.00 | 0.00 | 0.00 | 86 | 1016.0 |
| 20260508030551 | 41 | 295 | 0.0 | 2.0 | 0.00 | 0.00 | 0.00 | 86 | 1016.1 |
| 20260508030054 | 41 | 0 | 0.0 | 0.0 | 0.00 | 0.00 | 0.00 | 85 | 1016.0 |
| 20260508025549 | 41 | 0 | 0.0 | 0.0 | 0.00 | 0.00 | 0.00 | 85 | 1015.9 |
| 20260508025053 | 41 | 0 | 0.0 | 0.0 | 0.00 | 0.00 | 0.00 | 84 | 1015.9 |
| 20260508024605 | 42 | 0 | 0.0 | 1.0 | 0.00 | 0.00 | 0.00 | 84 | 1015.9 |
| 20260508024050 | 42 | 0 | 0.0 | 1.0 | 0.00 | 0.00 | 0.00 | 83 | 1016.0 |
| 20260508023552 | 42 | 295 | 0.0 | 0.0 | 0.00 | 0.00 | 0.00 | 82 | 1015.9 |
| 20260508023054 | 43 | 0 | 0.0 | 1.0 | 0.00 | 0.00 | 0.00 | 82 | 1016.0 |
| 20260508022555 | 43 | 0 | 0.0 | 1.0 | 0.00 | 0.00 | 0.00 | 82 | 1015.9 |
| 20260508022051 | 43 | 295 | 0.0 | 1.0 | 0.00 | 0.00 | 0.00 | 81 | 1015.9 |
| 20260508021552 | 44 | 0 | 0.0 | 1.0 | 0.00 | 0.00 | 0.00 | 80 | 1015.9 |
| 20260508021050 | 44 | 295 | 0.0 | 1.0 | 0.00 | 0.00 | 0.00 | 79 | 1015.8 |
| 20260508020550 | 44 | 0 | 0.0 | 0.0 | 0.00 | 0.00 | 0.00 | 79 | 1015.7 |
| 20260508020056 | 44 | 0 | 0.0 | 0.0 | 0.00 | 0.00 | 0.00 | 78 | 1015.7 |
| 20260508015551 | 45 | 0 | 0.0 | 0.0 | 0.00 | 0.00 | 0.00 | 78 | 1015.6 |
| 20260508015048 | 45 | 0 | 0.0 | 0.0 | 0.00 | 0.00 | 0.00 | 79 | 1015.6 |
| 20260508014554 | 46 | 0 | 0.0 | 0.0 | 0.00 | 0.00 | 0.00 | 78 | 1015.4 |
| 20260508014056 | 46 | 0 | 0.0 | 0.0 | 0.00 | 0.00 | 0.00 | 77 | 1015.4 |
| 20260508013548 | 46 | 0 | 0.0 | 0.0 | 0.00 | 0.00 | 0.00 | 76 | 1015.4 |
| 20260508013053 | 47 | 0 | 0.0 | 0.0 | 0.00 | 0.00 | 0.00 | 75 | 1015.4 |
| 20260508012555 | 47 | 0 | 0.0 | 0.0 | 0.00 | 0.00 | 0.00 | 74 | 1015.5 |
| 20260508012052 | 48 | 0 | 0.0 | 0.0 | 0.00 | 0.00 | 0.00 | 73 | 1015.4 |
| 20260508011602 | 49 | 0 | 0.0 | 0.0 | 0.00 | 0.00 | 0.00 | 71 | 1015.3 |
| 20260508011052 | 49 | 0 | 0.0 | 0.0 | 0.00 | 0.00 | 0.00 | 70 | 1015.1 |
| 20260508010551 | 50 | 0 | 0.0 | 0.0 | 0.00 | 0.00 | 0.00 | 68 | 1015.0 |
| 20260508010054 | 51 | 0 | 0.0 | 0.0 | 0.00 | 0.00 | 0.00 | 67 | 1014.9 |
| 20260508005551 | 51 | 0 | 0.0 | 0.0 | 0.00 | 0.00 | 0.00 | 66 | 1014.8 |
| 20260508005051 | 52 | 0 | 0.0 | 0.0 | 0.00 | 0.00 | 0.00 | 65 | 1014.8 |
| 20260508004558 | 52 | 0 | 0.0 | 0.0 | 0.00 | 0.00 | 0.00 | 65 | 1014.9 |
| 20260508004051 | 53 | 0 | 0.0 | 0.0 | 0.00 | 0.00 | 0.00 | 62 | 1014.7 |
| 20260508003551 | 54 | 0 | 0.0 | 0.0 | 0.00 | 0.00 | 0.00 | 60 | 1014.6 |
| 20260508003106 | 55 | 0 | 0.0 | 0.0 | 0.00 | 0.00 | 0.00 | 58 | 1014.6 |
| 20260508002552 | 56 | 0 | 0.0 | 0.0 | 0.00 | 0.00 | 0.00 | 57 | 1014.6 |
| 20260508002055 | 57 | 0 | 0.0 | 1.0 | 0.00 | 0.00 | 0.00 | 56 | 1014.6 |
| 20260508001557 | 58 | 0 | 0.0 | 1.0 | 0.00 | 0.00 | 0.00 | 55 | 1014.5 |
| 20260508001048 | 59 | 0 | 0.0 | 1.0 | 0.00 | 0.00 | 0.00 | 52 | 1014.5 |
| 20260508000551 | 60 | 0 | 0.0 | 1.0 | 0.00 | 0.00 | 0.00 | 50 | 1014.5 |
| 20260508000057 | 61 | 0 | 0.0 | 1.0 | 0.00 | 0.00 | 0.00 | 50 | 1014.4 |
| 20260507235552 | 61 | 0 | 0.0 | 1.0 | 0.00 | 0.00 | 0.00 | 48 | 1014.4 |
| 20260507235050 | 62 | 0 | 0.0 | 2.0 | 0.00 | 0.00 | 0.00 | 48 | 1014.4 |
| 20260507234556 | 62 | 0 | 0.0 | 4.0 | 0.00 | 0.00 | 0.00 | 44 | 1014.3 |
| 20260507234051 | 62 | 311 | 0.0 | 4.0 | 0.00 | 0.00 | 0.00 | 39 | 1014.3 |
| 20260507233552 | 62 | 302 | 1.0 | 3.0 | 0.00 | 0.00 | 0.00 | 43 | 1014.3 |
| 20260507233102 | 62 | 0 | 0.0 | 3.0 | 0.00 | 0.00 | 0.00 | 44 | 1014.3 |
| 20260507232548 | 62 | 0 | 0.0 | 3.0 | 0.00 | 0.00 | 0.00 | 39 | 1014.3 |
| 20260507232051 | 62 | 112 | 0.0 | 4.0 | 0.00 | 0.00 | 0.00 | 41 | 1014.3 |
| 20260507231556 | 62 | 0 | 1.0 | 4.0 | 0.00 | 0.00 | 0.00 | 36 | 1014.3 |
| 20260507231051 | 62 | 257 | 1.0 | 5.0 | 0.00 | 0.00 | 0.00 | 36 | 1014.2 |
| 20260507230551 | 62 | 331 | 1.0 | 6.0 | 0.00 | 0.00 | 0.00 | 34 | 1014.2 |
| 20260507225552 | 62 | 268 | 3.0 | 9.0 | 0.00 | 0.00 | 0.00 | 35 | 1014.1 |
| 20260507225053 | 62 | 269 | 4.0 | 9.0 | 0.00 | 0.00 | 0.00 | 35 | 1014.1 |
| 20260507224559 | 63 | 225 | 3.0 | 9.0 | 0.00 | 0.00 | 0.00 | 38 | 1014.1 |
| 20260507224049 | 63 | 324 | 3.0 | 11.0 | 0.00 | 0.00 | 0.00 | 36 | 1014.1 |
| 20260507223551 | 63 | 266 | 5.0 | 11.0 | 0.00 | 0.00 | 0.00 | 38 | 1014.1 |
| 20260507223053 | 63 | 330 | 2.0 | 6.0 | 0.00 | 0.00 | 0.00 | 33 | 1014.2 |
| 20260507222551 | 63 | 237 | 2.0 | 8.0 | 0.00 | 0.00 | 0.00 | 37 | 1014.1 |
| 20260507222051 | 63 | 249 | 3.0 | 8.0 | 0.00 | 0.00 | 0.00 | 33 | 1014.3 |
| 20260507221557 | 64 | 284 | 3.0 | 10.0 | 0.00 | 0.00 | 0.00 | 35 | 1014.3 |
| 20260507221052 | 64 | 38 | 3.0 | 10.0 | 0.00 | 0.00 | 0.00 | 34 | 1014.4 |
| 20260507220551 | 64 | 219 | 4.0 | 10.0 | 0.00 | 0.00 | 0.00 | 33 | 1014.3 |
| 20260507220056 | 64 | 289 | 3.0 | 9.0 | 0.00 | 0.00 | 0.00 | 34 | 1014.3 |
| 20260507215555 | 64 | 209 | 1.0 | 10.0 | 0.00 | 0.00 | 0.00 | 34 | 1014.3 |
| 20260507215050 | 64 | 197 | 4.0 | 13.0 | 0.00 | 0.00 | 0.00 | 34 | 1014.2 |
| 20260507214604 | 64 | 346 | 1.0 | 13.0 | 0.00 | 0.00 | 0.00 | 36 | 1014.0 |
| 20260507214048 | 64 | 325 | 5.0 | 13.0 | 0.00 | 0.00 | 0.00 | 36 | 1014.0 |
| 20260507213552 | 63 | 316 | 2.0 | 11.0 | 0.00 | 0.00 | 0.00 | 35 | 1014.0 |
| 20260507213104 | 63 | 9 | 4.0 | 13.0 | 0.00 | 0.00 | 0.00 | 34 | 1013.9 |
| 20260507212555 | 63 | 224 | 7.0 | 13.0 | 0.00 | 0.00 | 0.00 | 33 | 1013.9 |
| 20260507212052 | 63 | 290 | 7.0 | 13.0 | 0.00 | 0.00 | 0.00 | 32 | 1013.8 |
| 20260507211555 | 63 | 264 | 4.0 | 10.0 | 0.00 | 0.00 | 0.00 | 34 | 1013.9 |
| 20260507211050 | 63 | 250 | 4.0 | 15.0 | 0.00 | 0.00 | 0.00 | 32 | 1013.9 |
| 20260507210549 | 63 | 236 | 5.0 | 15.0 | 0.00 | 0.00 | 0.00 | 34 | 1013.9 |
| 20260507205552 | 64 | 135 | 2.0 | 14.0 | 0.00 | 0.00 | 0.00 | 35 | 1013.9 |
| 20260507205053 | 63 | 347 | 5.0 | 14.0 | 0.00 | 0.00 | 0.00 | 33 | 1013.9 |
| 20260507204558 | 63 | 252 | 6.0 | 14.0 | 0.00 | 0.00 | 0.00 | 34 | 1013.9 |
| 20260507204048 | 64 | 304 | 5.0 | 12.0 | 0.00 | 0.00 | 0.00 | 34 | 1013.9 |